Richmond, VA

6:20 AM EST on December 11, 2019 (GMT -0500)
Richmond International

Weather History for KRIC - October, 2019

Change the Weather History Date:

Friday, October 18, 2019

  Actual Average Record
Temperature  
Mean Temperature 52 °F 59 °F  
Max Temperature 66 °F 70 °F 88 °F (1938)
Min Temperature 37 °F 47 °F 28 °F (1977)
Degree Days  
Heating Degree Days 14 7  
Month to date heating degree days 49 90  
Since 1 July heating degree days 49 119  
Cooling Degree Days 0 1  
Month to date cooling degree days 70 31  
Year to date cooling degree days 2040 1535  
Growing Degree Days 2 (Base 50)    
Moisture  
Dew Point 37 °F    
Average Humidity 61    
Maximum Humidity 89    
Minimum Humidity 33    
Precipitation  
Precipitation 0.00 in 0.09 in 2.91 in (1996)
Month to date precipitation 2.02 1.72  
Year to date precipitation 35.17 35.84  
Snow  
Snow 0.00 in 0.00 in 0.00 in (2002)
Month to date snowfall 0.0 0.0  
Since 1 July snowfall 0.0 0.0  
Snow Depth 0.00 in    
Sea Level Pressure  
Sea Level Pressure 29.99 in    
Wind  
Wind Speed 5 mph ()    
Max Wind Speed 20 mph    
Max Gust Speed 26 mph    
Visibility 10.0 miles    
Events      
T = Trace of Precipitation, MM = Missing Value Source: Averaged Metar Reports

Daily Weather History Graph

Daily Weather History Graph

Search for Another Location

Airport or City:

Astronomy

Oct. 18, 2019 Rise Set
Actual Time 7:20 AM EDT 6:28 PM EDT
Civil Twilight 6:53 AM EDT 6:54 PM EDT
Nautical Twilight 6:23 AM EDT 7:25 PM EDT
Astronomical Twilight 5:52 AM EDT 7:55 PM EDT
Moon 9:47 PM EDT (10/18) 11:46 AM EDT (10/18)
Length of Visible Light 12h 01m
Length of Day
11h 08m
Waning Gibbous, 79% of the Moon is Illuminated
Oct 18
Waning Gibbous
Oct 21
Last Quarter
Oct 27
New
Nov 4
First Quarter
Nov 12
Full

Hourly Weather History & Observations

Time (EDT) Temp. Windchill Dew Point Humidity Pressure Visibility Wind Dir Wind Speed Gust Speed Precip Events Conditions
12:54 AM 50.0 °F - 37.0 °F 61% 29.88 in 10.0 mi West 9.2 mph - N/A   Clear
1:54 AM 44.1 °F 41.5 °F 37.0 °F 76% 29.90 in 10.0 mi NNE 4.6 mph - N/A   Clear
2:54 AM 42.1 °F - 36.0 °F 79% 29.90 in 10.0 mi Calm Calm - N/A   Clear
3:54 AM 43.0 °F - 37.0 °F 80% 29.92 in 10.0 mi Calm Calm - N/A   Clear
4:54 AM 43.0 °F 39.5 °F 37.0 °F 80% 29.94 in 10.0 mi West 5.8 mph - N/A   Clear
5:54 AM 37.0 °F - 34.0 °F 89% 29.96 in 10.0 mi Calm Calm - N/A   Clear
6:54 AM 39.9 °F - 35.1 °F 83% 29.98 in 10.0 mi Calm Calm - N/A   Partly Cloudy
7:54 AM 41.0 °F - 37.0 °F 86% 29.99 in 10.0 mi Calm Calm - N/A   Partly Cloudy
8:54 AM 48.9 °F - 39.9 °F 71% 30.01 in 10.0 mi NW 5.8 mph - N/A   Clear
9:54 AM 54.0 °F - 36.0 °F 51% 30.02 in 10.0 mi NNW 11.5 mph - N/A   Partly Cloudy
10:54 AM 57.9 °F - 36.0 °F 44% 30.01 in 10.0 mi NW 12.7 mph - N/A   Partly Cloudy
11:54 AM 60.1 °F - 35.1 °F 39% 30.02 in 10.0 mi NW 16.1 mph 23.0 mph N/A   Partly Cloudy
12:54 PM 61.0 °F - 35.1 °F 38% 30.01 in 10.0 mi NW 12.7 mph - N/A   Partly Cloudy
1:54 PM 64.0 °F - 36.0 °F 35% 29.99 in 10.0 mi NW 13.8 mph 20.7 mph N/A   Partly Cloudy
2:54 PM 64.9 °F - 36.0 °F 34% 29.97 in 10.0 mi NW 10.4 mph - N/A   Partly Cloudy
3:54 PM 64.9 °F - 35.1 °F 33% 29.99 in 10.0 mi NNW 8.1 mph - N/A   Partly Cloudy
4:54 PM 64.9 °F - 35.1 °F 33% 30.00 in 10.0 mi NW 10.4 mph - N/A   Clear
5:54 PM 63.0 °F - 35.1 °F 35% 30.01 in 10.0 mi NNW 4.6 mph - N/A   Clear
6:54 PM 57.9 °F - 37.0 °F 46% 30.02 in 10.0 mi NNW 3.5 mph - N/A   Partly Cloudy
7:54 PM 52.0 °F - 39.9 °F 63% 30.06 in 10.0 mi Calm Calm - N/A   Clear
8:54 PM 50.0 °F - 42.1 °F 74% 30.05 in 10.0 mi Calm Calm - N/A   Clear
9:54 PM 48.9 °F - 39.9 °F 71% 30.06 in 10.0 mi NE 5.8 mph - N/A   Clear
10:54 PM 45.0 °F - 39.0 °F 80% 30.07 in 10.0 mi Calm Calm - N/A   Clear
11:54 PM 45.0 °F - 37.9 °F 76% 30.07 in 10.0 mi Calm Calm - N/A   Clear